Retour au catalogue

STARLINK-6287

ActifCommunicationsVLEO
NORAD 56404·PAYLOAD·🇺🇸 United States

Lancé May 4, 2023 depuis Cape Canaveral Space Force Station

Loading…

Prochains Passages (prochaines 24 heures)

TLE

FraisSource: CelesTrak SupGP

Époque: Sep 14, 2026, 21:44 UTC

1 56404C 23061AG  26257.90604167 -.00007831  00000+0 -28366-3 0  2571
2 56404  42.9995 198.6455 0000954 233.7686   8.2371 15.27578793    16

Suivez STARLINK-6287 en temps réel avec AllMySat

Download on the App Store